QPF
0.00 0.00 0.00 0.00 0.01 0.01 0.00 0.00 0.01 0.01 0.00 0.00 0.01 0.01 0.01 0.00 0.01 0.01 0.01 0.01 0.01 0.01 0.01 0.02 0.03 0.03 0.03 0.02 0.01 0.01 0.01 0.01 0.01 0.01 0.00 0.00 0.01 0.01 0.01 0.01 0.01 0.04 0.05
0.01 0.01 0.00 0.00 0.00 0.00 0.00 0.00 0.00 0.01 0.01 0.01 0.01 0.01 0.01 0.01 0.01 0.01 0.01 0.01 0.00 0.00 0.00 0.00 0.00 0.01 0.01 0.01 0.01 0.01 0.02 0.02 0.02 0.02 0.01 0.00 0.00 0.01 0.01 0.00 0.01 0.03 0.04
0.01 0.01 0.01 0.00 0.00 0.00 0.00 0.00 0.00 0.01 0.01 0.01 0.01 0.01 0.01 0.01 0.01 0.01 0.01 0.00 0.00 0.00 0.00 0.00 0.00 0.00 0.00 0.01 0.01 0.01 0.01 0.02 0.02 0.03 0.02 0.01 0.01 0.01 0.01 0.01 0.01 0.02 0.04
0.01 0.01 0.00 0.01 0.01 0.00 0.01 0.01 0.01 0.01 0.01 0.01 0.01 0.01 0.01 0.01 0.01 0.01 0.01 0.01 0.00 0.00 0.00 0.00 0.00 0.00 0.00 0.00 0.01 0.01 0.01 0.01 0.01 0.02 0.02 0.01 0.01 0.01 0.01 0.01 0.01 0.02 0.04
0.01 0.01 0.01 0.01 0.01 0.01 0.01 0.01 0.01 0.01 0.01 0.01 0.01 0.01 0.01 0.01 0.01 0.01 0.01 0.01 0.01 0.01 0.00 0.00 0.00 0.00 0.00 0.00 0.01 0.01 0.01 0.02 0.02 0.02 0.01 0.01 0.01 0.01 0.01 0.01 0.01 0.01 0.04
0.01 0.01 0.01 0.01 0.01 0.01 0.01 0.01 0.01 0.01 0.01 0.01 0.01 0.02 0.02 0.02 0.02 0.02 0.02 0.01 0.01 0.01 0.01 0.00 0.00 0.00 0.00 0.00 0.01 0.01 0.02 0.02 0.02 0.02 0.02 0.01 0.01 0.01 0.01 0.01 0.01 0.02 0.06
0.01 0.01 0.01 0.01 0.01 0.01 0.02 0.02 0.01 0.01 0.01 0.01 0.01 0.01 0.02 0.02 0.03 0.03 0.03 0.02 0.01 0.01 0.01 0.01 0.00 0.00 0.00 0.00 0.00 0.01 0.02 0.02 0.01 0.01 0.01 0.01 0.01 0.01 0.01 0.01 0.02 0.03 0.05
0.01 0.01 0.02 0.01 0.01 0.01 0.01 0.01 0.02 0.02 0.01 0.01 0.01 0.01 0.01 0.01 0.02 0.02 0.03 0.02 0.02 0.02 0.02 0.01 0.01 0.01 0.01 0.01 0.01 0.01 0.02 0.02 0.01 0.01 0.01 0.01 0.01 0.01 0.01 0.02 0.02 0.02 0.03
0.01 0.02 0.01 0.01 0.01 0.01 0.01 0.01 0.01 0.01 0.01 0.01 0.01 0.01 0.01 0.01 0.02 0.03 0.04 0.04 0.04 0.05 0.05 0.04 0.03 0.02 0.01 0.01 0.01 0.01 0.02 0.04 0.02 0.01 0.01 0.01 0.01 0.01 0.02 0.02 0.03 0.03 0.04
0.02 0.02 0.02 0.01 0.01 0.01 0.01 0.01 0.01 0.02 0.01 0.01 0.01 0.01 0.01 0.01 0.02 0.03 0.04 0.04 0.04 0.04 0.05 0.05 0.04 0.03 0.02 0.02 0.02 0.01 0.02 0.03 0.03 0.01 0.01 0.01 0.01 0.02 0.02 0.03 0.04 0.05 0.06
0.02 0.02 0.02 0.02 0.02 0.01 0.01 0.01 0.02 0.02 0.02 0.01 0.01 0.02 0.02 0.02 0.04 0.04 0.04 0.03 0.03 0.03 0.03 0.03 0.04 0.04 0.04 0.03 0.02 0.02 0.02 0.02 0.02 0.02 0.01 0.01 0.01 0.01 0.03 0.04 0.05 0.06 0.05
0.02 0.02 0.02 0.02 0.02 0.02 0.02 0.02 0.02 0.02 0.02 0.02 0.03 0.03 0.02 0.02 0.03 0.03 0.03 0.03 0.02 0.02 0.02 0.03 0.04 0.04 0.04 0.03 0.02 0.02 0.02 0.01 0.02 0.02 0.01 0.01 0.01 0.02 0.02 0.03 0.05 0.05 0.03
0.02 0.02 0.02 0.02 0.02 0.02 0.02 0.02 0.02 0.02 0.02 0.02 0.02 0.02 0.02 0.02 0.02 0.03 0.03 0.03 0.03 0.02 0.02 0.02 0.03 0.04 0.04 0.04 0.03 0.02 0.02 0.01 0.01 0.01 0.01 0.01 0.01 0.02 0.02 0.02 0.04 0.04 0.02
0.02 0.03 0.03 0.02 0.02 0.02 0.01 0.01 0.01 0.01 0.02 0.03 0.03 0.03 0.02 0.01 0.02 0.02 0.02 0.03 0.03 0.03 0.02 0.03 0.03 0.04 0.03 0.03 0.03 0.03 0.02 0.01 0.01 0.00 0.00 0.01 0.01 0.01 0.02 0.03 0.03 0.04 0.02
0.02 0.03 0.04 0.04 0.03 0.02 0.02 0.02 0.02 0.01 0.02 0.02 0.02 0.03 0.03 0.03 0.03 0.03 0.03 0.03 0.04 0.05 0.05 0.05 0.04 0.04 0.04 0.03 0.03 0.03 0.03 0.03 0.02 0.02 0.01 0.01 0.01 0.01 0.02 0.03 0.03 0.04 0.03
0.01 0.02 0.03 0.04 0.04 0.03 0.03 0.03 0.03 0.03 0.02 0.02 0.02 0.03 0.03 0.03 0.03 0.03 0.03 0.04 0.04 0.05 0.04 0.04 0.03 0.03 0.03 0.02 0.02 0.02 0.02 0.02 0.03 0.03 0.03 0.02 0.02 0.02 0.02 0.03 0.03 0.03 0.03
0.01 0.01 0.02 0.02 0.02 0.03 0.04 0.04 0.03 0.03 0.02 0.02 0.02 0.03 0.03 0.03 0.03 0.03 0.04 0.04 0.05 0.05 0.04 0.03 0.03 0.02 0.02 0.01 0.01 0.01 0.01 0.02 0.02 0.02 0.02 0.03 0.03 0.02 0.02 0.02 0.02 0.03 0.02
0.01 0.01 0.02 0.02 0.03 0.03 0.03 0.03 0.03 0.04 0.03 0.03 0.02 0.03 0.03 0.03 0.03 0.03 0.03 0.03 0.03 0.03 0.03 0.02 0.02 0.02 0.02 0.01 0.01 0.01 0.01 0.01 0.02 0.02 0.02 0.02 0.02 0.03 0.03 0.02 0.02 0.03 0.02
0.02 0.02 0.03 0.04 0.04 0.04 0.04 0.03 0.03 0.03 0.03 0.03 0.03 0.03 0.03 0.03 0.02 0.03 0.02 0.01 0.01 0.02 0.02 0.02 0.02 0.02 0.02 0.02 0.01 0.01 0.01 0.02 0.02 0.03 0.03 0.03 0.02 0.02 0.02 0.02 0.02 0.02 0.02
0.02 0.03 0.04 0.05 0.04 0.04 0.03 0.03 0.03 0.02 0.02 0.02 0.03 0.03 0.03 0.02 0.02 0.02 0.01 0.01 0.01 0.01 0.02 0.02 0.03 0.03 0.03 0.03 0.02 0.02 0.02 0.02 0.02 0.03 0.04 0.05 0.05 0.04 0.04 0.03 0.03 0.03 0.02
0.02 0.04 0.05 0.05 0.04 0.03 0.02 0.02 0.02 0.02 0.02 0.02 0.02 0.01 0.01 0.01 0.01 0.01 0.00 0.00 0.01 0.01 0.01 0.02 0.03 0.03 0.03 0.03 0.03 0.03 0.02 0.02 0.03 0.03 0.03 0.04 0.04 0.05 0.04 0.04 0.05 0.05 0.04
0.02 0.03 0.04 0.04 0.04 0.04 0.04 0.03 0.03 0.03 0.02 0.02 0.01 0.01 0.01 0.01 0.01 0.00 0.00 0.00 0.00 0.00 0.01 0.01 0.02 0.02 0.02 0.02 0.03 0.03 0.03 0.03 0.03 0.03 0.03 0.04 0.04 0.05 0.05 0.05 0.05 0.05 0.05
0.01 0.02 0.03 0.04 0.04 0.05 0.05 0.05 0.04 0.03 0.03 0.02 0.01 0.01 0.01 0.02 0.01 0.01 0.01 0.01 0.01 0.01 0.01 0.01 0.01 0.01 0.01 0.01 0.01 0.02 0.02 0.02 0.02 0.03 0.03 0.03 0.04 0.04 0.05 0.06 0.07 0.07 0.08
0.01 0.01 0.02 0.03 0.04 0.04 0.05 0.05 0.05 0.05 0.05 0.03 0.02 0.01 0.01 0.01 0.01 0.01 0.01 0.01 0.02 0.02 0.02 0.01 0.01 0.01 0.01 0.01 0.01 0.02 0.02 0.02 0.02 0.02 0.02 0.03 0.03 0.03 0.03 0.04 0.04 0.05 0.07
0.01 0.01 0.01 0.02 0.03 0.03 0.03 0.04 0.04 0.05 0.05 0.05 0.04 0.03 0.02 0.02 0.01 0.01 0.01 0.01 0.01 0.01 0.01 0.01 0.01 0.01 0.01 0.01 0.01 0.02 0.02 0.02 0.02 0.02 0.03 0.03 0.03 0.02 0.02 0.03 0.03 0.03 0.03
0.00 0.00 0.00 0.00 0.01 0.02 0.02 0.02 0.03 0.03 0.03 0.03 0.03 0.03 0.03 0.02 0.01 0.01 0.01 0.01 0.01 0.01 0.01 0.01 0.01 0.01 0.01 0.01 0.01 0.01 0.02 0.02 0.02 0.02 0.02 0.02 0.02 0.02 0.02 0.02 0.02 0.02 0.02
MSLP
1019.84 1019.82 1019.75 1019.62 1019.46 1019.27 1019.09 1018.95 1018.86 1018.83 1018.87 1018.96 1019.10 1019.24 1019.38 1019.49 1019.57 1019.61 1019.64 1019.64 1019.64 1019.63 1019.61 1019.57 1019.48 1019.35 1019.16 1018.90 1018.60 1018.28 1017.96 1017.67 1017.45 1017.30 1017.24 1017.26 1017.34 1017.47 1017.61 1017.76 1017.89 1018.00 1018.07
1020.42 1020.43 1020.39 1020.30 1020.16 1019.99 1019.82 1019.68 1019.57 1019.52 1019.52 1019.57 1019.65 1019.75 1019.84 1019.91 1019.96 1019.98 1019.99 1019.99 1019.99 1019.98 1019.97 1019.93 1019.85 1019.71 1019.52 1019.25 1018.94 1018.60 1018.26 1017.95 1017.70 1017.52 1017.43 1017.41 1017.47 1017.57 1017.69 1017.82 1017.94 1018.03 1018.10
1020.96 1021.01 1021.01 1020.95 1020.85 1020.72 1020.57 1020.44 1020.33 1020.26 1020.23 1020.25 1020.29 1020.34 1020.39 1020.43 1020.44 1020.44 1020.43 1020.41 1020.40 1020.38 1020.36 1020.31 1020.22 1020.08 1019.88 1019.62 1019.31 1018.97 1018.63 1018.31 1018.05 1017.85 1017.73 1017.68 1017.69 1017.75 1017.83 1017.91 1017.99 1018.05 1018.09
1021.42 1021.51 1021.56 1021.56 1021.50 1021.40 1021.28 1021.17 1021.07 1021.00 1020.96 1020.96 1020.97 1020.99 1021.01 1021.02 1021.01 1020.98 1020.95 1020.91 1020.88 1020.84 1020.80 1020.73 1020.63 1020.49 1020.29 1020.03 1019.73 1019.41 1019.08 1018.77 1018.50 1018.29 1018.14 1018.06 1018.02 1018.02 1018.03 1018.05 1018.07 1018.07 1018.07
1021.80 1021.93 1022.03 1022.07 1022.05 1022.00 1021.92 1021.83 1021.75 1021.68 1021.65 1021.64 1021.64 1021.65 1021.65 1021.63 1021.60 1021.56 1021.50 1021.45 1021.39 1021.33 1021.27 1021.19 1021.08 1020.93 1020.73 1020.49 1020.21 1019.90 1019.59 1019.29 1019.03 1018.81 1018.63 1018.50 1018.41 1018.34 1018.28 1018.23 1018.17 1018.11 1018.05
1022.09 1022.28 1022.41 1022.49 1022.51 1022.49 1022.44 1022.38 1022.32 1022.28 1022.25 1022.24 1022.24 1022.24 1022.23 1022.20 1022.16 1022.10 1022.03 1021.95 1021.88 1021.80 1021.72 1021.62 1021.51 1021.36 1021.17 1020.94 1020.68 1020.40 1020.11 1019.83 1019.57 1019.34 1019.13 1018.96 1018.81 1018.68 1018.55 1018.42 1018.29 1018.16 1018.04
1022.34 1022.56 1022.72 1022.82 1022.87 1022.88 1022.85 1022.81 1022.77 1022.74 1022.72 1022.71 1022.71 1022.70 1022.68 1022.65 1022.59 1022.52 1022.43 1022.34 1022.25 1022.15 1022.06 1021.95 1021.83 1021.69 1021.51 1021.31 1021.07 1020.82 1020.55 1020.28 1020.03 1019.79 1019.56 1019.35 1019.15 1018.96 1018.77 1018.57 1018.38 1018.20 1018.04
1022.55 1022.79 1022.96 1023.08 1023.14 1023.15 1023.13 1023.10 1023.07 1023.04 1023.02 1023.01 1023.01 1022.99 1022.95 1022.90 1022.83 1022.73 1022.63 1022.52 1022.41 1022.30 1022.20 1022.09 1021.97 1021.83 1021.67 1021.48 1021.27 1021.04 1020.80 1020.55 1020.29 1020.05 1019.81 1019.57 1019.34 1019.10 1018.87 1018.63 1018.41 1018.19 1018.00
1022.73 1022.97 1023.14 1023.25 1023.30 1023.31 1023.28 1023.24 1023.21 1023.17 1023.15 1023.13 1023.10 1023.06 1023.01 1022.93 1022.83 1022.71 1022.58 1022.45 1022.32 1022.20 1022.08 1021.96 1021.84 1021.71 1021.57 1021.39 1021.20 1020.99 1020.76 1020.52 1020.28 1020.03 1019.79 1019.54 1019.29 1019.04 1018.78 1018.53 1018.29 1018.07 1017.87
1022.86 1023.08 1023.23 1023.32 1023.34 1023.33 1023.29 1023.24 1023.19 1023.14 1023.10 1023.06 1023.01 1022.94 1022.86 1022.74 1022.61 1022.46 1022.30 1022.14 1021.98 1021.84 1021.70 1021.58 1021.45 1021.32 1021.17 1021.00 1020.82 1020.62 1020.40 1020.17 1019.93 1019.69 1019.45 1019.20 1018.95 1018.70 1018.46 1018.22 1017.99 1017.78 1017.59
1022.88 1023.08 1023.20 1023.25 1023.25 1023.21 1023.15 1023.08 1023.01 1022.95 1022.89 1022.83 1022.76 1022.66 1022.54 1022.40 1022.23 1022.04 1021.85 1021.65 1021.47 1021.29 1021.13 1020.98 1020.83 1020.68 1020.52 1020.35 1020.16 1019.95 1019.73 1019.50 1019.27 1019.03 1018.79 1018.56 1018.33 1018.10 1017.87 1017.66 1017.46 1017.28 1017.12
1022.75 1022.91 1023.00 1023.02 1022.99 1022.93 1022.85 1022.77 1022.70 1022.63 1022.57 1022.49 1022.40 1022.29 1022.15 1021.97 1021.77 1021.55 1021.32 1021.09 1020.87 1020.66 1020.46 1020.28 1020.09 1019.91 1019.72 1019.52 1019.30 1019.08 1018.84 1018.60 1018.36 1018.12 1017.89 1017.67 1017.46 1017.25 1017.06 1016.88 1016.71 1016.56 1016.45
1022.44 1022.57 1022.62 1022.62 1022.57 1022.50 1022.42 1022.35 1022.29 1022.23 1022.17 1022.11 1022.02 1021.90 1021.75 1021.57 1021.35 1021.11 1020.85 1020.59 1020.33 1020.08 1019.84 1019.61 1019.38 1019.15 1018.91 1018.66 1018.41 1018.14 1017.88 1017.61 1017.36 1017.11 1016.88 1016.66 1016.46 1016.27 1016.09 1015.93 1015.79 1015.67 1015.58
1021.94 1022.04 1022.08 1022.07 1022.02 1021.97 1021.91 1021.86 1021.83 1021.80 1021.78 1021.74 1021.68 1021.58 1021.44 1021.27 1021.05 1020.80 1020.54 1020.25 1019.97 1019.68 1019.40 1019.11 1018.83 1018.54 1018.24 1017.94 1017.63 1017.31 1017.01 1016.71 1016.42 1016.15 1015.90 1015.67 1015.45 1015.26 1015.09 1014.93 1014.79 1014.68 1014.60
1021.31 1021.40 1021.44 1021.44 1021.41 1021.39 1021.37 1021.37 1021.39 1021.41 1021.44 1021.45 1021.44 1021.39 1021.29 1021.14 1020.95 1020.72 1020.45 1020.17 1019.86 1019.54 1019.22 1018.89 1018.55 1018.20 1017.84 1017.48 1017.12 1016.75 1016.39 1016.04 1015.72 1015.41 1015.12 1014.85 1014.61 1014.38 1014.17 1013.98 1013.82 1013.68 1013.59
1020.62 1020.72 1020.78 1020.81 1020.83 1020.85 1020.89 1020.96 1021.04 1021.13 1021.23 1021.31 1021.36 1021.36 1021.32 1021.22 1021.07 1020.88 1020.63 1020.35 1020.04 1019.71 1019.36 1019.00 1018.61 1018.22 1017.81 1017.40 1016.98 1016.57 1016.16 1015.76 1015.38 1015.02 1014.68 1014.35 1014.04 1013.74 1013.46 1013.21 1012.98 1012.78 1012.64
1020.00 1020.12 1020.21 1020.29 1020.36 1020.45 1020.56 1020.69 1020.84 1021.01 1021.17 1021.33 1021.44 1021.52 1021.54 1021.50 1021.40 1021.25 1021.04 1020.78 1020.48 1020.15 1019.79 1019.41 1019.00 1018.58 1018.14 1017.69 1017.24 1016.79 1016.34 1015.90 1015.47 1015.04 1014.63 1014.22 1013.82 1013.42 1013.04 1012.67 1012.34 1012.05 1011.83
1019.54 1019.70 1019.84 1019.96 1020.09 1020.24 1020.42 1020.61 1020.84 1021.07 1021.30 1021.51 1021.69 1021.83 1021.91 1021.93 1021.88 1021.78 1021.61 1021.38 1021.11 1020.79 1020.44 1020.06 1019.65 1019.22 1018.77 1018.31 1017.84 1017.37 1016.90 1016.42 1015.94 1015.45 1014.95 1014.44 1013.92 1013.40 1012.89 1012.39 1011.92 1011.52 1011.19
1019.33 1019.53 1019.71 1019.88 1020.07 1020.27 1020.50 1020.75 1021.02 1021.30 1021.58 1021.84 1022.07 1022.26 1022.39 1022.45 1022.46 1022.39 1022.26 1022.07 1021.83 1021.54 1021.21 1020.84 1020.45 1020.03 1019.60 1019.14 1018.68 1018.21 1017.72 1017.21 1016.68 1016.12 1015.54 1014.92 1014.28 1013.62 1012.96 1012.31 1011.70 1011.15 1010.70
1019.39 1019.62 1019.84 1020.06 1020.29 1020.53 1020.80 1021.09 1021.39 1021.70 1022.01 1022.29 1022.55 1022.76 1022.92 1023.02 1023.05 1023.02 1022.92 1022.76 1022.55 1022.28 1021.98 1021.64 1021.28 1020.89 1020.48 1020.05 1019.60 1019.13 1018.64 1018.10 1017.53 1016.91 1016.24 1015.52 1014.75 1013.95 1013.14 1012.34 1011.58 1010.90 1010.33
1019.69 1019.95 1020.20 1020.45 1020.71 1020.98 1021.27 1021.57 1021.89 1022.20 1022.52 1022.81 1023.07 1023.29 1023.46 1023.57 1023.62 1023.60 1023.53 1023.39 1023.20 1022.96 1022.68 1022.36 1022.03 1021.67 1021.28 1020.88 1020.45 1019.99 1019.49 1018.94 1018.33 1017.65 1016.90 1016.07 1015.19 1014.26 1013.32 1012.38 1011.49 1010.68 1010.00
1020.19 1020.46 1020.72 1020.99 1021.27 1021.55 1021.84 1022.15 1022.46 1022.77 1023.07 1023.35 1023.60 1023.81 1023.97 1024.08 1024.12 1024.11 1024.04 1023.91 1023.72 1023.50 1023.23 1022.94 1022.62 1022.27 1021.91 1021.52 1021.10 1020.64 1020.13 1019.56 1018.91 1018.18 1017.36 1016.45 1015.47 1014.44 1013.38 1012.34 1011.35 1010.45 1009.68
1020.79 1021.06 1021.34 1021.61 1021.89 1022.17 1022.46 1022.76 1023.05 1023.34 1023.61 1023.87 1024.09 1024.28 1024.42 1024.51 1024.55 1024.52 1024.44 1024.30 1024.11 1023.88 1023.61 1023.31 1022.99 1022.65 1022.29 1021.89 1021.47 1021.00 1020.47 1019.87 1019.18 1018.40 1017.53 1016.56 1015.51 1014.41 1013.29 1012.18 1011.12 1010.16 1009.34
1021.40 1021.68 1021.96 1022.23 1022.51 1022.79 1023.07 1023.34 1023.61 1023.88 1024.12 1024.35 1024.54 1024.70 1024.81 1024.88 1024.89 1024.84 1024.73 1024.57 1024.36 1024.11 1023.82 1023.50 1023.15 1022.79 1022.40 1021.99 1021.54 1021.04 1020.48 1019.85 1019.13 1018.31 1017.40 1016.40 1015.32 1014.19 1013.04 1011.91 1010.84 1009.86 1009.03
1021.97 1022.25 1022.53 1022.81 1023.09 1023.36 1023.62 1023.88 1024.13 1024.36 1024.58 1024.77 1024.93 1025.06 1025.14 1025.17 1025.14 1025.06 1024.93 1024.73 1024.48 1024.20 1023.87 1023.51 1023.12 1022.72 1022.29 1021.84 1021.34 1020.81 1020.21 1019.55 1018.80 1017.97 1017.04 1016.04 1014.96 1013.84 1012.71 1011.60 1010.56 1009.61 1008.80
1022.47 1022.76 1023.04 1023.32 1023.60 1023.86 1024.11 1024.35 1024.57 1024.78 1024.97 1025.13 1025.26 1025.35 1025.39 1025.39 1025.33 1025.21 1025.03 1024.80 1024.51 1024.17 1023.79 1023.38 1022.95 1022.49 1022.01 1021.50 1020.96 1020.38 1019.75 1019.06 1018.30 1017.47 1016.55 1015.57 1014.53 1013.47 1012.39 1011.34 1010.36 1009.47 1008.71
Thickness
5697 5694 5691 5688 5685 5682 5679 5677 5674 5671 5668 5665 5663 5661 5659 5656 5654 5652 5649 5647 5645 5643 5642 5640 5639 5637 5636 5634 5633 5631 5630 5628 5626 5627 5626 5623 5621 5620 5619 5618 5619 5619 5619
5692 5690 5687 5684 5680 5677 5675 5673 5670 5667 5664 5662 5659 5657 5655 5652 5650 5648 5645 5642 5640 5638 5637 5635 5634 5632 5630 5629 5627 5625 5624 5623 5621 5619 5619 5617 5615 5614 5613 5613 5613 5613 5613
5687 5685 5682 5679 5676 5673 5671 5668 5666 5663 5660 5658 5655 5652 5650 5647 5645 5643 5641 5638 5636 5635 5633 5631 5629 5627 5625 5623 5621 5620 5619 5617 5615 5613 5612 5611 5610 5608 5607 5607 5607 5606 5607
5682 5679 5676 5674 5671 5669 5666 5663 5661 5658 5655 5653 5650 5648 5645 5643 5640 5638 5635 5633 5631 5630 5628 5626 5624 5621 5619 5618 5616 5614 5613 5611 5609 5608 5607 5605 5603 5601 5600 5600 5601 5601 5601
5676 5673 5671 5669 5666 5663 5660 5658 5655 5653 5650 5647 5645 5642 5640 5638 5635 5632 5630 5628 5626 5624 5622 5620 5617 5614 5612 5610 5609 5607 5606 5604 5602 5602 5601 5599 5597 5595 5594 5593 5594 5595 5595
5670 5667 5665 5662 5659 5656 5654 5652 5649 5646 5644 5641 5639 5636 5634 5631 5628 5624 5622 5621 5620 5618 5615 5613 5610 5607 5604 5601 5599 5598 5597 5597 5596 5595 5594 5594 5592 5590 5587 5587 5587 5588 5589
5663 5661 5658 5656 5652 5650 5648 5645 5642 5640 5637 5634 5632 5629 5627 5624 5620 5617 5613 5613 5612 5611 5609 5606 5604 5602 5598 5596 5593 5589 5588 5587 5586 5588 5588 5588 5586 5584 5582 5581 5581 5581 5581
5655 5653 5651 5649 5646 5643 5640 5638 5635 5634 5631 5628 5626 5623 5620 5617 5613 5609 5607 5606 5605 5604 5602 5599 5597 5595 5592 5590 5588 5586 5584 5582 5579 5578 5580 5580 5578 5577 5575 5575 5574 5574 5574
5647 5645 5643 5641 5638 5635 5632 5630 5629 5626 5624 5621 5619 5616 5613 5611 5606 5602 5599 5599 5598 5596 5594 5591 5589 5587 5583 5580 5580 5579 5577 5575 5572 5569 5568 5568 5567 5566 5566 5566 5566 5567 5568
5638 5637 5635 5633 5630 5628 5626 5624 5621 5619 5616 5614 5612 5610 5607 5605 5599 5594 5591 5592 5591 5589 5586 5584 5580 5579 5576 5572 5573 5572 5571 5570 5567 5565 5562 5561 5560 5559 5557 5558 5559 5559 5560
5630 5629 5627 5625 5623 5621 5618 5615 5613 5610 5608 5606 5604 5602 5600 5596 5591 5587 5583 5584 5583 5581 5579 5577 5574 5569 5567 5565 5564 5564 5563 5562 5562 5560 5559 5557 5556 5555 5553 5552 5552 5551 5552
5621 5619 5618 5616 5614 5611 5609 5606 5604 5601 5598 5597 5595 5593 5591 5588 5583 5579 5576 5574 5573 5572 5571 5569 5566 5562 5559 5556 5555 5554 5553 5552 5553 5553 5552 5551 5550 5549 5547 5546 5545 5544 5543
5611 5609 5608 5607 5605 5602 5599 5596 5594 5592 5590 5589 5586 5584 5582 5579 5575 5570 5567 5564 5562 5562 5561 5559 5555 5552 5550 5548 5546 5545 5544 5545 5546 5545 5544 5543 5542 5541 5540 5539 5538 5537 5536
5602 5601 5598 5597 5595 5592 5588 5586 5584 5583 5581 5579 5577 5575 5572 5569 5566 5562 5559 5556 5553 5551 5550 5547 5544 5542 5541 5540 5538 5537 5538 5538 5537 5537 5537 5535 5533 5532 5532 5532 5531 5530 5530
5594 5592 5588 5586 5585 5582 5579 5576 5574 5572 5571 5568 5567 5566 5563 5560 5556 5552 5549 5548 5545 5544 5540 5538 5536 5535 5534 5532 5531 5530 5529 5528 5528 5528 5528 5527 5525 5525 5524 5522 5522 5522 5523
5584 5581 5578 5575 5573 5572 5569 5565 5560 5559 5557 5555 5554 5553 5552 5548 5544 5541 5539 5536 5533 5531 5530 5530 5528 5527 5525 5524 5523 5521 5521 5521 5520 5519 5519 5519 5518 5517 5515 5514 5513 5514 5515
5574 5571 5568 5566 5564 5562 5560 5558 5554 5549 5545 5543 5542 5540 5539 5536 5534 5531 5528 5525 5521 5519 5520 5520 5519 5518 5516 5515 5513 5513 5512 5511 5510 5510 5510 5510 5509 5508 5507 5506 5506 5506 5506
5564 5560 5558 5556 5554 5553 5550 5549 5546 5544 5541 5538 5533 5530 5527 5525 5523 5520 5517 5514 5512 5510 5510 5510 5509 5507 5506 5505 5503 5502 5502 5501 5500 5500 5500 5500 5500 5499 5499 5499 5499 5498 5498
5554 5551 5548 5546 5544 5542 5540 5537 5536 5534 5532 5529 5525 5521 5516 5514 5511 5508 5506 5506 5505 5502 5500 5499 5498 5496 5495 5493 5492 5491 5490 5490 5489 5489 5489 5489 5489 5490 5490 5490 5490 5487 5488
5543 5539 5536 5536 5534 5532 5529 5527 5525 5523 5521 5518 5515 5511 5507 5505 5503 5499 5497 5496 5495 5493 5490 5489 5487 5485 5484 5483 5482 5480 5480 5479 5479 5478 5478 5478 5478 5478 5479 5479 5479 5479 5480
5533 5530 5526 5526 5525 5522 5519 5516 5514 5512 5509 5506 5503 5499 5496 5495 5493 5490 5487 5485 5483 5481 5480 5478 5477 5475 5473 5472 5471 5471 5470 5469 5468 5468 5468 5468 5468 5467 5467 5468 5468 5468 5468
5523 5521 5519 5517 5514 5512 5509 5506 5503 5500 5498 5495 5492 5488 5483 5483 5481 5478 5476 5474 5471 5469 5467 5466 5465 5464 5462 5461 5461 5460 5460 5459 5458 5457 5457 5457 5457 5456 5456 5456 5457 5457 5457
5514 5512 5509 5506 5503 5499 5497 5494 5492 5489 5486 5483 5480 5476 5473 5472 5470 5467 5465 5462 5459 5457 5455 5454 5453 5452 5451 5450 5450 5450 5449 5448 5447 5447 5446 5446 5446 5445 5445 5445 5446 5446 5445
5504 5502 5499 5496 5492 5489 5486 5483 5480 5477 5474 5472 5469 5466 5463 5460 5458 5456 5453 5451 5448 5446 5445 5443 5442 5441 5440 5439 5439 5438 5438 5437 5436 5436 5436 5435 5435 5435 5435 5435 5435 5435 5434
5493 5491 5489 5485 5482 5478 5475 5472 5468 5465 5463 5460 5458 5455 5452 5449 5447 5445 5443 5440 5438 5437 5435 5434 5433 5432 5431 5430 5429 5428 5427 5426 5426 5425 5425 5425 5425 5425 5425 5425 5425 5425 5425
5482 5480 5477 5474 5471 5468 5464 5461 5458 5454 5452 5449 5446 5444 5441 5439 5436 5434 5432 5430 5429 5427 5426 5425 5424 5423 5422 5421 5420 5419 5418 5417 5416 5415 5415 5415 5415 5415 5415 5415 5414 5414 5414